Location: Canet
(43.3261°N, 5.3723°E)
Time: 18:06:23
(UTC+00:00)

ARGOS - Pass Details

Date: 24 January 2021
Orbit: 820 x 834 km, 98.4° (Epoch: 08 March)

Event Time Altitude Azimuth Distance (km) Brightness Sun altitude
Rises 17:55:00 0° 141° (SE) 3,342 6.1 -13.7°
Reaches altitude 10° 17:57:28 10° 134° (SE) 2,415 5.3 -14.1°
Maximum altitude 18:02:22 38° 68° (ENE) 1,245 3.6 -15.0°
Drops below altitude 10° 18:07:17 10° 2° (N) 2,436 5.5 -15.9°
Sets 18:09:47 0° 354° (N) 3,376 6.3 -16.3°
